Portada
METAR-TAF:

METAR-TAF

Aeroports :

La Argelia

Loja, Equador

latitud: 03-59-45S, longitud: 079-22-19W, altitud: 1236 m

Observació

L'informe es va fer fa 11 hores i 57 minuts, a les 23:00 UTC
Vent 8 kt del Est/Sud-Est
Temperatura 26°C
Humitat 42%
Pressió 1014 hPa
Visibilitat 10 km o més
Cel ennuvolat a una alçada de 4000 ft

METAR: SECA 082300Z 11008KT 9999 BKN040 26/12 Q1014 RMK A2995

Hora: 05:57 (10:57 UTC)


TAF: manca

Observacions i pronòstics meteorològics de més de 4000 aeroports (METAR i TAF).

Les estacions disponibles són els punts grocs i vermells al mapa.

Posi el ratolí al punt desitjat per veure el nom de l'estació.

Feu clic per veure les observacions i els pronòstics meteorològics.

Per canviar el mapa: feu clic els botons verds amb una creu de color negre per apropar; al botó verd amb un guió per allunyar la imatge; o en les fletxes verdes per a mapes adjacents.


METAR-TAF: